STARLINK-34399, 64444

Orbit data source: Space-Track

STARLINK-34399, 64444 is a payload satellite owned by SpaceX/Seattle (US) in LEO that was launched on Wed, 18 Jun 2025 UTC via an FALCON 9 launch vehicle from the Air Force Eastern Test Range (AFETR). Payload-class satellites include a variety of spacecraft equipped with specific instruments for various scientific and technological missions. These include communications satellites like Starlink; space stations such as the ISS; scientific satellites like the Hubble; Earth observation satellites from companies like Planet Labs, Umbra, and HawkEye 360; GPS; miniature CubeSats for education and research; and military/defense satellites.

Loading next visibility...
Identifier
64444, 2025-130G
Orbit
LEO
Country
Flag of USUS
Related business
Manufacturer
SpaceX/Seattle
Mission
Operational Commercial Communications
Bus & Motor
STARLINK V2MO, Unknown motor
Mass
575 kg wet, ~530 kg dry
Launch date (UTC)
2025-06-18 (1 year ago)
Launch vehicle
FALCON 9
Launch site
Air Force Eastern Test Range (AFETR)
Object type
Payload
Rocket body
Debris
Shape & HBR
Box + 2 Pan, 17.7 m
Radar Cross Section
36.964 m², Large (>1 m²)

Expand to show TLE details & history
Last TLE update: 16 hours ago

TLE from 16 hours ago
0 STARLINK-34399
1 64444U 25130G   26171.16666794  .00028104  00000-0  83942-3 0  9999
2 64444  53.1611 331.0638 0001121  90.8117 269.3014 15.34414501 56415
Epoch: 2026-06-20T04:00Z
TLE epoch observation values (Epoch: 2026-06-20T04:00:00.110Z)
Latitude
-0°
Longitude
2.67815°
Altitude
463.571 km
Speed
7.636 km/s
True Right ascension
22h 04m 15s
True Declination
0° 00' 00"
Sunlit
Object was in full shadow at epoch
Visualization orbit readout
Latitude
Unknown
Longitude
Unknown
Altitude
Unknown
Speed
Unknown
Apparent Right ascension
Unknown
Apparent Declination
Unknown
Sunlit
N/A
Visualization observer readout
Local Sidereal Time
07:16:33
Azimuth
Unknown
Elevation
Unknown
Doppler factor
Unknown
Orbital elements
Apogee altitude
463.684 km
Perigee altitude
462.15 km
Semi-major axis
6,841.054 km
Eccentricity
0.00011
Inclination
53.1611°
RAAN
331.0638°
Arg. of periapsis
90.8117°
True anomaly
269.28856°
Mean anomaly
269.3014°
Eccentric anomaly
269.29498°
Mean motion
3.83582 °/min
Orbital period
93.85 mins
BSTAR
0.00083942
Loading maneuver chart data...
Computing Atmospheric mass density...
Loading historical data...
Loading historical data...
Loading historical data...
Loading historical data...
Loading historical data...
Loading historical data...
Loading historical data...

Documentation

Showing up to 5 results
|